Grand Island, NE

7:18 AM CDT on August 30, 2016 (GMT -0500)
Central Nebraska Regional

Weather History for KGRI - November, 2012

Change the Weather History Date:

Sunday, November 4, 2012

  Actual Average Record
Temperature  
Mean Temperature 48 °F 44 °F  
Max Temperature 57 °F 56 °F 78 °F (1909)
Min Temperature 39 °F 32 °F -3 °F (1991)
Degree Days  
Heating Degree Days 17 21  
Month to date heating degree days 76 81  
Since 1 July heating degree days 597 604  
Cooling Degree Days 0 0  
Month to date cooling degree days 0 0  
Year to date cooling degree days 1507 1034  
Moisture  
Dew Point 37 °F    
Average Humidity 68    
Maximum Humidity 85    
Minimum Humidity 51    
Precipitation  
Precipitation T in 0.04 in 0.80 in (1922)
Month to date precipitation T 0.18  
Year to date precipitation 9.36 25.04  
Snow  
Snow 0.00 in 0.10 in 0.70 in (1951)
Month to date snowfall 0.0 0.3  
Since 1 July snowfall T 1.4  
Since 1 September snowfall T 1.4  
Snow Depth 0.00 in    
Sea Level Pressure  
Sea Level Pressure 30.10 in    
Wind  
Wind Speed 8 mph (West)    
Max Wind Speed 14 mph    
Max Gust Speed 17 mph    
Visibility 10 miles    
Events Rain    
T = Trace of Precipitation, MM = Missing Value Source: NWS Daily Summary

Daily Weather History Graph

Daily Weather History Graph

Search for Another Location

Airport or City:

Trip Planner

Search our weather history database for the weather conditions in past years. The results will help you decide how hot, cold, wet, or windy it might be!

Date:

Astronomy

Nov. 04, 2012 Rise Set
Actual Time 7:08 AM CST 5:24 PM CST
Civil Twilight 6:39 AM CST 5:53 PM CST
Nautical Twilight 6:06 AM CST 6:26 PM CST
Astronomical Twilight 5:34 AM CST 6:58 PM CST
Moon 10:04 PM CST (11/4) 11:53 AM CST (11/4)
Length of Visible Light 11h 14m
Length of Day
10h 16m
Waning Gibbous, 72% of the Moon is Illuminated
Nov 4
Waning Gibbous
Nov 6
Last Quarter
Nov 13
New
Nov 20
First Quarter
Nov 28
Full

Hourly Weather History & Observations

Time (CST) Temp. Windchill Dew Point Humidity Pressure Visibility Wind Dir Wind Speed Gust Speed Precip Events Conditions
12:53 AM 45.0 °F 40.6 °F 36.0 °F 71% 30.18 in 10.0 mi South 8.1 mph - N/A   Mostly Cloudy
1:53 AM 45.0 °F 41.2 °F 36.0 °F 71% 30.17 in 10.0 mi SSE 6.9 mph - N/A   Mostly Cloudy
1:53 AM 42.1 °F 39.2 °F 36.0 °F 79% 30.16 in 10.0 mi SSE 4.6 mph - N/A   Mostly Cloudy
2:53 AM 42.1 °F 36.6 °F 36.0 °F 79% 30.14 in 10.0 mi South 9.2 mph - N/A   Mostly Cloudy
3:53 AM 39.0 °F 33.4 °F 35.1 °F 86% 30.14 in 10.0 mi South 8.1 mph - N/A   Clear
4:53 AM 41.0 °F 35.2 °F 36.0 °F 82% 30.12 in 10.0 mi South 9.2 mph - N/A   Clear
5:53 AM 41.0 °F 34.7 °F 36.0 °F 82% 30.11 in 10.0 mi South 10.4 mph - N/A   Clear
6:53 AM 41.0 °F 34.7 °F 36.0 °F 82% 30.11 in 10.0 mi SW 10.4 mph - N/A   Clear
7:53 AM 41.0 °F 35.8 °F 36.0 °F 82% 30.11 in 10.0 mi SSW 8.1 mph - N/A   Clear
8:53 AM 46.0 °F 40.6 °F 36.0 °F 68% 30.10 in 10.0 mi WSW 11.5 mph - N/A   Clear
9:53 AM 46.9 °F - 36.0 °F 66% 30.09 in 10.0 mi West 10.4 mph - N/A   Clear
10:53 AM 51.1 °F - 37.0 °F 59% 30.07 in 10.0 mi West 8.1 mph - N/A   Clear
11:53 AM 55.0 °F - 37.0 °F 51% 30.06 in 10.0 mi West 9.2 mph - N/A   Clear
12:53 PM 55.9 °F - 37.0 °F 49% 30.04 in 10.0 mi WNW 6.9 mph - N/A   Scattered Clouds
1:53 PM 55.9 °F - 37.9 °F 51% 30.02 in 10.0 mi NNW 5.8 mph - N/A   Overcast
2:53 PM 55.0 °F - 37.9 °F 53% 30.04 in 10.0 mi NNE 6.9 mph - N/A   Overcast
3:53 PM 54.0 °F - 37.0 °F 53% 30.04 in 10.0 mi NNE 6.9 mph - N/A   Overcast
4:53 PM 53.1 °F - 39.9 °F 61% 30.08 in 10.0 mi NNW 8.1 mph - 0.00 in Rain Light Rain
5:53 PM 50.0 °F - 39.9 °F 68% 30.09 in 10.0 mi NNW 5.8 mph - 0.00 in   Overcast
6:53 PM 48.9 °F - 39.9 °F 71% 30.10 in 10.0 mi NW 5.8 mph - N/A   Overcast
7:53 PM 48.0 °F - 39.0 °F 71% 30.11 in 10.0 mi WNW 6.9 mph - N/A   Overcast
8:53 PM 46.0 °F 43.9 °F 39.0 °F 76% 30.11 in 10.0 mi WNW 4.6 mph - N/A   Overcast
9:53 PM 46.0 °F 43.1 °F 37.9 °F 73% 30.11 in 10.0 mi NW 5.8 mph - N/A   Overcast
10:32 PM 46.4 °F 43.5 °F 37.4 °F 71% 30.09 in 10.0 mi NW 5.8 mph - N/A   Overcast
10:53 PM 46.0 °F 41.9 °F 37.9 °F 73% 30.10 in 10.0 mi NNW 8.1 mph - N/A   Overcast